Saint George, Bermuda

5:54 AM AST on December 08, 2016 (GMT -0400)
Bermuda International

Weather History for TXKF - November, 2012

Change the Weather History Date:

Monday, November 19, 2012

  Actual Average Record
Temperature  
Mean Temperature 74 °F -  
Max Temperature 76 °F 70 °F 77 °F (2003)
Min Temperature 71 °F 63 °F 57 °F (2008)
Cooling Degree Days 8    
Growing Degree Days 24 (Base 50)    
Moisture  
Dew Point 69 °F    
Average Humidity 86    
Maximum Humidity 94    
Minimum Humidity 78    
Precipitation  
Precipitation 0.08 in - - ()
Sea Level Pressure  
Sea Level Pressure 29.93 in    
Wind  
Wind Speed 13 mph ()    
Max Wind Speed 21 mph    
Max Gust Speed -    
Visibility 6.8 miles    
Events Rain    
Averages and records for this station are not official NWS values.
T = Trace of Precipitation, MM = Missing Value Source: Averaged Metar Reports

Daily Weather History Graph

Daily Weather History Graph

Search for Another Location

Airport or City:

Trip Planner

Search our weather history database for the weather conditions in past years. The results will help you decide how hot, cold, wet, or windy it might be!

Date:

Astronomy

Nov. 19, 2012 Rise Set
Actual Time 6:52 AM AST 5:16 PM AST
Civil Twilight 6:25 AM AST 5:42 PM AST
Nautical Twilight 5:55 AM AST 6:12 PM AST
Astronomical Twilight 5:26 AM AST 6:41 PM AST
Moon 11:59 AM AST (11/19) 11:29 PM AST (11/19)
Length of Visible Light 11h 16m
Length of Day
10h 24m
Waxing Crescent, 40% of the Moon is Illuminated
Nov 19
Waxing Crescent
Nov 20
First Quarter
Nov 28
Full
Dec 6
Last Quarter
Dec 13
New

Hourly Weather History & Observations

Time (AST) Temp. Dew Point Humidity Pressure Visibility Wind Dir Wind Speed Gust Speed Precip Events Conditions
12:55 AM 71.6 °F 64.4 °F 78% 30.09 in 6.2 mi East 20.7 mph - N/A   Overcast
1:55 AM 71.6 °F 66.2 °F 83% 30.06 in 6.2 mi East 18.4 mph - N/A   Overcast
2:00 AM 71 °F 66 °F 78% 30.08 in 9 mi East 18.4 mph - -   Overcast
2:55 AM 71.6 °F 66.2 °F 83% 30.06 in 6.2 mi East 16.1 mph - N/A   Overcast
3:55 AM 71.6 °F 66.2 °F 83% 30.04 in 6.2 mi East 15.0 mph - N/A   Overcast
4:55 AM 71.6 °F 68.0 °F 88% 30.04 in 6.2 mi East 15.0 mph - N/A Rain Light Rain Showers
5:00 AM 72 °F 68 °F 83% 30.04 in 9 mi East 15.0 mph - - Rain Light Rain Showers
5:01 AM 71.6 °F 68.0 °F 88% 30.01 in 6.2 mi East 11.5 mph - N/A   Overcast
5:55 AM 71.6 °F 68.0 °F 88% 30.01 in 6.2 mi East 17.3 mph - N/A   Overcast
6:55 AM 73.4 °F 68.0 °F 83% 30.01 in 6.2 mi ESE 13.8 mph - N/A   Mostly Cloudy
7:39 AM 71.6 °F 68.0 °F 88% 30.01 in 6.2 mi ESE 16.1 mph - N/A   Overcast
7:55 AM 71.6 °F 68.0 °F 88% 30.01 in 6.2 mi ESE 16.1 mph - N/A Rain Light Rain Showers
8:00 AM 72 °F 69 °F 85% 30.01 in 9 mi ESE 16.1 mph - - Rain Light Rain Showers
8:05 AM 71.6 °F 69.8 °F 94% 30.01 in 6.2 mi ESE 13.8 mph - N/A   Overcast
8:55 AM 73.4 °F 69.8 °F 88% 29.98 in 6.2 mi East 12.7 mph - N/A   Mostly Cloudy
9:08 AM 73.4 °F 69.8 °F 88% 29.98 in 6.2 mi East 11.5 mph - N/A   Mostly Cloudy
9:24 AM 73.4 °F 69.8 °F 88% 29.98 in 6.2 mi ESE 12.7 mph - N/A Rain Light Rain Showers
9:55 AM 71.6 °F 69.8 °F 94% 29.98 in - ESE 10.4 mph - N/A Rain Light Rain Showers
10:17 AM 71.6 °F 69.8 °F 94% 29.98 in 6.2 mi SSE 4.6 mph - N/A   Mostly Cloudy
10:55 AM 73.4 °F 69.8 °F 88% 29.95 in 6.2 mi South 12.7 mph - N/A   Mostly Cloudy
11:00 AM 73 °F 70 °F 88% 29.97 in 9 mi South 12.7 mph - - Rain Light Rain Showers
11:16 AM 75.2 °F 69.8 °F 83% 29.95 in 6.2 mi SSW 15.0 mph - N/A   Mostly Cloudy
11:55 AM 75.2 °F 69.8 °F 83% 29.92 in 6.2 mi SSW 15.0 mph - N/A   Mostly Cloudy
12:55 PM 75.2 °F 69.8 °F 83% 29.89 in 6.2 mi South 15.0 mph - N/A   Mostly Cloudy
1:55 PM 77.0 °F 69.8 °F 78% 29.89 in 6.2 mi South 12.7 mph - N/A   Mostly Cloudy
2:00 PM 76 °F 71 °F 78% 29.89 in 9 mi South 12.7 mph - -   Partly Cloudy
2:55 PM 75.2 °F 69.8 °F 83% 29.86 in 6.2 mi South 15.0 mph - N/A   Mostly Cloudy
3:19 PM 75.2 °F 71.6 °F 89% 29.86 in 6.2 mi South 12.7 mph - N/A   Mostly Cloudy
3:44 PM 75.2 °F 69.8 °F 83% 29.86 in 6.2 mi South 12.7 mph - N/A   Mostly Cloudy
3:55 PM 75.2 °F 71.6 °F 89% 29.86 in 6.2 mi South 12.7 mph - N/A   Mostly Cloudy
4:55 PM 73.4 °F 69.8 °F 88% 29.83 in 6.2 mi South 13.8 mph - N/A   Mostly Cloudy
5:00 PM 74 °F 70 °F 84% 29.84 in 9 mi South 13.8 mph - -   Partly Cloudy
5:55 PM 73.4 °F 68.0 °F 83% 29.83 in 6.2 mi SSW 11.5 mph - N/A   Mostly Cloudy
6:55 PM 73.4 °F 69.8 °F 88% 29.83 in 6.2 mi SSW 9.2 mph - N/A   Mostly Cloudy
7:55 PM 73.4 °F 69.8 °F 88% 29.83 in 6.2 mi SSW 9.2 mph - N/A   Scattered Clouds
8:00 PM 73 °F 69 °F 85% 29.83 in 9 mi SSW 9.2 mph - -   Partly Cloudy
8:55 PM 73.4 °F 69.8 °F 88% 29.80 in 6.2 mi SSW 11.5 mph - N/A   Mostly Cloudy
9:55 PM 73.4 °F 69.8 °F 88% 29.77 in 6.2 mi SSW 11.5 mph - N/A   Mostly Cloudy
10:55 PM 73.4 °F 69.8 °F 88% 29.77 in 6.2 mi SSW 12.7 mph - N/A   Mostly Cloudy
11:00 PM 74 °F 70 °F 83% 29.79 in 9 mi SSW 12.7 mph - -   Mostly Cloudy
11:55 PM 73.4 °F 69.8 °F 88% 29.77 in 6.2 mi SSW 10.4 mph - N/A   Mostly Cloudy